N135GD -KORL

Flight info

Callsign N135GD
Flight time N/A
Altitude VFR
Route FF
Aircraft A139/L-DOV/C

Departure

Time N/A
Airport -

Arrival

Time 2026-05-04 23:29
Airport Orlando Executive Airport (KORL)
Time Latitude Longitude Altitude Speed Heading
2026-05-04 23:16 28.61771 -80.80920 1057 ft 156 kts 269°
2026-05-04 23:16 28.61735 -80.82160 1023 ft 157 kts 269°
2026-05-04 23:16 28.61697 -80.83403 1012 ft 157 kts 269°
2026-05-04 23:16 28.61528 -80.84626 1007 ft 158 kts 248°
2026-05-04 23:17 28.61080 -80.85758 1028 ft 157 kts 242°
2026-05-04 23:17 28.60595 -80.86875 1114 ft 159 kts 244°
2026-05-04 23:17 28.60116 -80.88005 1230 ft 158 kts 244°
2026-05-04 23:17 28.59649 -80.89128 1222 ft 157 kts 243°
2026-05-04 23:18 28.59184 -80.90263 1197 ft 157 kts 243°
2026-05-04 23:18 28.58726 -80.91391 1181 ft 157 kts 244°
2026-05-04 23:18 28.58268 -80.92524 1168 ft 158 kts 244°
2026-05-04 23:18 28.57814 -80.93650 1172 ft 158 kts 244°
2026-05-04 23:19 28.57359 -80.94783 1173 ft 158 kts 244°
2026-05-04 23:19 28.56902 -80.95913 1182 ft 157 kts 244°
2026-05-04 23:19 28.56445 -80.97049 1166 ft 159 kts 244°
2026-05-04 23:19 28.56114 -80.98265 1180 ft 160 kts 254°
2026-05-04 23:20 28.55829 -80.99475 1178 ft 160 kts 254°
2026-05-04 23:20 28.55543 -81.00686 1188 ft 159 kts 254°
2026-05-04 23:20 28.55257 -81.01902 1178 ft 160 kts 254°
2026-05-04 23:20 28.54970 -81.03121 1171 ft 160 kts 254°
2026-05-04 23:21 28.54686 -81.04339 1182 ft 159 kts 254°
2026-05-04 23:21 28.54404 -81.05556 1187 ft 159 kts 256°
2026-05-04 23:21 28.54383 -81.06816 1182 ft 159 kts 269°
2026-05-04 23:21 28.54508 -81.08052 1183 ft 158 kts 282°
2026-05-04 23:22 28.54700 -81.09288 1165 ft 160 kts 281°
2026-05-04 23:22 28.54891 -81.10528 1152 ft 160 kts 281°
2026-05-04 23:22 28.55052 -81.11775 1138 ft 161 kts 272°
2026-05-04 23:22 28.55137 -81.13029 1143 ft 159 kts 275°
2026-05-04 23:23 28.55229 -81.14291 1135 ft 160 kts 275°
2026-05-04 23:23 28.55319 -81.15553 1141 ft 159 kts 275°
2026-05-04 23:23 28.55406 -81.16803 1135 ft 159 kts 275°
2026-05-04 23:23 28.55491 -81.18057 1133 ft 159 kts 276°
2026-05-04 23:24 28.55572 -81.19254 1111 ft 156 kts 272°
2026-05-04 23:24 28.55615 -81.20513 980 ft 153 kts 271°
2026-05-04 23:24 28.55668 -81.21652 923 ft 138 kts 276°
2026-05-04 23:24 28.55958 -81.22604 748 ft 130 kts 292°
2026-05-04 23:25 28.56265 -81.23587 612 ft 130 kts 291°
2026-05-04 23:25 28.56556 -81.24536 643 ft 127 kts 293°
2026-05-04 23:25 28.56856 -81.25473 653 ft 126 kts 292°
2026-05-04 23:25 28.57161 -81.26415 650 ft 129 kts 293°
2026-05-04 23:26 28.57466 -81.27372 682 ft 128 kts 292°
2026-05-04 23:26 28.57758 -81.28306 778 ft 114 kts 295°
2026-05-04 23:26 28.57821 -81.29078 702 ft 87 kts 263°
2026-05-04 23:26 28.57750 -81.29704 593 ft 76 kts 261°
2026-05-04 23:27 28.57601 -81.30278 602 ft 77 kts 246°
2026-05-04 23:27 28.57464 -81.30847 652 ft 75 kts 256°
2026-05-04 23:27 28.57255 -81.31389 658 ft 76 kts 232°
2026-05-04 23:27 28.56981 -81.31890 675 ft 74 kts 224°
2026-05-04 23:28 28.56662 -81.32317 553 ft 68 kts 219°
2026-05-04 23:28 28.56319 -81.32650 507 ft 62 kts 205°
2026-05-04 23:28 28.55983 -81.32940 471 ft 58 kts 204°
2026-05-04 23:28 28.55683 -81.33228 421 ft 56 kts 211°
2026-05-04 23:29 28.55382 -81.33488 360 ft 53 kts 194°
2026-05-04 23:29 28.55110 -81.33706 303 ft 41 kts 191°
2026-05-04 23:29 28.54928 -81.33842 290 ft 25 kts 133°
2026-05-04 23:29 28.54848 -81.33812 258 ft 25 kts 97°
2026-05-04 23:30 28.54813 -81.33635 189 ft 12 kts 58°
2026-05-04 23:30 28.54839 -81.33631 124 ft 5 kts 45°
2026-05-04 23:30 28.54831 -81.33656 114 ft 0 kts 42°